Flag for Brazil Weather past 2 weeks in Niterói, Rio de Janeiro, Brazil

Now
73 °F

Partly sunny.


Feels Like: 76 °F
Forecast: 67 / 75 °F
Wind: 9 mph from South

Location: Rio De Janeiro Airport

Current Time: Oct 22, 2014 at 1:36:19 PM

Latest Report: Oct 22, 2014 at 1:00 PM


Visibility: N/A

Pressure: 30.18 "Hg

Humidity: 69%

Dew point: 63 °F

Location of NiteróiLocation

Historic Weather in Niterói — Graph

°F

Niterói temperature yesterday

Maximum temperature yesterday: 75 °F (at 12:00 PM)
Minimum temperature yesterday: 66 °F (at 11:00 PM)
Average temperature yesterday: 71 °F

Past Weeks' High & Low Weather Summary

 TemperatureHumidityPressure
High91 °F (Oct 13, 12:00 PM)100% (Oct 12, 6:00 AM)30.18 "Hg (Oct 12, 6:00 AM)
Low64 °F (Oct 12, 11:00 PM)37% (Oct 8, 11:00 AM)29.68 "Hg (Oct 19, 4:00 PM)
Average76 °F74%29.97 "Hg
* Reported Oct 7 11:00 AM — Oct 22 12:00 Noon, Niterói, Weather by CustomWeather, © 2014

Note: Actual official high and low records may vary slightly from our data, if they occured in-between our weather recording intervals... More about our weather records

Advertising

Niterói weather history for previous 24 hours

 ConditionsComfort  
Time TempWeatherWind HumidityBarometerVisibility
12:00 PM
Oct 22
72 °FBroken clouds.7 mph73%30.18 "HgN/A
11:00 AM72 °FBroken clouds.3 mph69%30.18 "HgN/A
10:00 AM72 °FPartly sunny.2 mph73%30.18 "HgN/A
9:00 AM68 °FPartly sunny.3 mph83%30.18 "HgN/A
8:00 AM66 °FOvercast.5 mph88%30.18 "HgN/A
7:00 AM66 °FOvercast.2 mph88%30.15 "HgN/A
6:00 AM66 °FPartly cloudy.6 mph88%30.12 "Hg5 mi
11:00 PM
Oct 21
66 °FPassing clouds.7 mph83%30.18 "HgN/A
10:00 PM68 °FPassing clouds.7 mph88%30.15 "HgN/A
9:00 PM70 °FPartly cloudy.6 mph69%30.15 "HgN/A
8:00 PM70 °FPartly cloudy.5 mph69%30.12 "HgN/A
7:00 PM70 °FOvercast.2 mph64%30.09 "Hg6 mi
6:00 PM70 °FOvercast.6 mph64%30.09 "Hg6 mi
5:00 PM70 °FPartly sunny.13 mph73%30.09 "HgN/A
4:00 PM72 °FPartly sunny.9 mph69%30.09 "Hg6 mi
3:00 PM72 °FOvercast.13 mph73%30.09 "HgN/A
2:00 PM75 °FMore clouds than sun.10 mph69%30.12 "Hg6 mi
1:00 PM75 °FMostly cloudy.10 mph61%30.12 "Hg6 mi
Weather by CustomWeather, © 2014

See weather overviewHow to use our weather pages